カタログに戻る

EWS-G2

運用中気象GEO
NORAD 36411·PAYLOAD·🇺🇸 United States

打ち上げ Mar 4, 2010 から Cape Canaveral Space Force Station

Loading…

TLE

最新Source: Space-Track

元期: Sep 14, 2026, 14:06 UTC

1 36411U 10008A   26257.58766773  .00000014  00000-0  00000-0 0  9990
2 36411   1.5189  81.8366 0005151  80.2655 106.3301  1.00271905 60534

AllMySatでEWS-G2をリアルタイム追跡

Download on the App Store